TimeEST,TemperatureF,Dew PointF,Humidity,Sea Level PressureIn,VisibilityMPH,Wind Direction,Wind SpeedMPH,Gust SpeedMPH,PrecipitationIn,Events,Conditions,WindDirDegrees,DateUTC
12:53 AM,5.0,-4.0,66,30.15,8.0,WNW,9.2,-,N/A,,Mostly Cloudy,290,2013-01-22 05:53:00
1:53 AM,3.9,-5.1,66,30.16,10.0,NW,9.2,-,N/A,,Clear,310,2013-01-22 06:53:00
2:11 AM,5.0,-4.0,66,30.12,4.0,WNW,13.8,-,0.00,Snow,Light Snow,300,2013-01-22 07:11:00
2:53 AM,5.0,-8.0,55,30.17,10.0,West,19.6,24.2,0.00,,Clear,280,2013-01-22 07:53:00
3:53 AM,3.0,-9.9,55,30.19,10.0,West,11.5,-,N/A,,Clear,280,2013-01-22 08:53:00
4:53 AM,1.9,-9.9,58,30.21,10.0,WNW,13.8,-,N/A,,Clear,290,2013-01-22 09:53:00
5:53 AM,1.0,-9.9,60,30.23,10.0,West,8.1,-,N/A,,Clear,280,2013-01-22 10:53:00
6:53 AM,-0.0,-11.0,60,30.25,10.0,West,8.1,-,N/A,,Clear,270,2013-01-22 11:53:00
7:53 AM,-0.9,-9.9,66,30.27,10.0,West,8.1,-,N/A,,Partly Cloudy,260,2013-01-22 12:53:00
8:53 AM,1.0,-9.0,63,30.29,10.0,WSW,9.2,-,N/A,,Scattered Clouds,250,2013-01-22 13:53:00
9:53 AM,3.0,-8.0,60,30.31,10.0,WSW,9.2,-,N/A,,Clear,250,2013-01-22 14:53:00
10:53 AM,7.0,-8.0,51,30.32,10.0,West,11.5,-,N/A,,Clear,280,2013-01-22 15:53:00
11:53 AM,9.0,-7.1,48,30.30,10.0,West,16.1,19.6,N/A,,Scattered Clouds,280,2013-01-22 16:53:00
12:53 PM,9.0,-5.1,53,30.28,10.0,West,16.1,-,N/A,,Overcast,260,2013-01-22 17:53:00
1:53 PM,9.0,-4.0,56,30.27,6.0,WNW,13.8,-,N/A,,Haze,290,2013-01-22 18:53:00
2:12 PM,8.6,-2.2,62,30.23,10.0,West,11.5,-,N/A,,Mostly Cloudy,270,2013-01-22 19:12:00
2:27 PM,10.4,-4.0,52,30.23,10.0,West,15.0,23.0,N/A,,Overcast,260,2013-01-22 19:27:00
2:53 PM,10.0,-2.9,56,30.27,9.0,West,13.8,20.7,0.00,,Mostly Cloudy,270,2013-01-22 19:53:00
3:53 PM,12.0,-2.9,51,30.27,10.0,WSW,16.1,-,N/A,,Partly Cloudy,250,2013-01-22 20:53:00
4:53 PM,12.0,-2.0,53,30.27,10.0,West,15.0,-,N/A,,Overcast,270,2013-01-22 21:53:00
5:14 PM,12.2,1.4,62,30.23,2.0,West,13.8,-,0.00,Snow,Light Snow,280,2013-01-22 22:14:00
5:21 PM,10.4,1.4,67,30.23,1.0,West,12.7,-,0.00,Snow,Light Snow,280,2013-01-22 22:21:00
5:29 PM,10.4,1.4,67,30.23,3.0,West,9.2,-,0.00,Snow,Light Snow,270,2013-01-22 22:29:00
5:50 PM,10.4,-0.4,62,30.24,8.0,West,12.7,-,0.00,,Overcast,270,2013-01-22 22:50:00
5:53 PM,10.9,-0.0,61,30.28,10.0,West,12.7,-,0.00,,Overcast,260,2013-01-22 22:53:00
6:53 PM,10.9,-0.9,59,30.30,10.0,WNW,9.2,-,N/A,,Overcast,290,2013-01-22 23:53:00
7:48 PM,10.4,1.4,67,30.26,4.0,West,8.1,-,0.00,Snow,Light Snow,270,2013-01-23 00:48:00
7:53 PM,10.0,1.0,67,30.30,5.0,West,8.1,-,0.00,Snow,Light Snow,260,2013-01-23 00:53:00
8:02 PM,10.4,1.4,67,30.25,9.0,West,8.1,-,0.00,Snow,Light Snow,260,2013-01-23 01:02:00
8:18 PM,10.4,3.2,73,30.25,1.8,West,10.4,-,0.00,Snow,Light Snow,270,2013-01-23 01:18:00
8:46 PM,10.4,1.4,67,30.25,5.0,West,10.4,-,0.00,Snow,Light Snow,260,2013-01-23 01:46:00
8:53 PM,10.0,-0.0,64,30.30,5.0,WSW,11.5,-,0.00,Snow,Light Snow,250,2013-01-23 01:53:00
9:14 PM,10.4,-0.4,62,30.25,9.0,WSW,13.8,-,0.00,Snow,Light Snow,250,2013-01-23 02:14:00
9:53 PM,10.0,1.0,67,30.30,4.0,WSW,9.2,-,0.00,Snow,Light Snow,250,2013-01-23 02:53:00
10:53 PM,9.0,1.0,70,30.30,5.0,West,11.5,-,0.00,Snow,Light Snow,260,2013-01-23 03:53:00
11:53 PM,9.0,-0.0,67,30.30,9.0,West,11.5,-,0.00,Snow,Light Snow,260,2013-01-23 04:53:00